GW2818 Weather Reports


Display with metric or nautical units.
time (UTC)temp
F
wind
direction
speed
MPH
gust
MPH
rain 1hr
in
rain 24hr
in
rain mn
in
humidity
%
barometer
mb
20260905004551 73 0 0.0 0.0 0.00 0.90 0.47 92 1015.3
20260905003054 73 0 0.0 0.0 0.00 0.90 0.47 92 1015.4
20260905001550 74 0 0.0 0.0 0.00 0.90 0.47 91 1015.4
20260905000050 74 0 0.0 0.0 0.00 0.90 0.47 91 1015.5
20260904234550 75 0 0.0 0.0 0.00 0.97 0.47 91 1015.3
20260904233058 75 0 0.0 0.0 0.00 0.97 0.47 90 1015.2
20260904231545 76 0 0.0 0.0 0.00 0.97 0.47 89 1015.3
20260904230045 76 0 0.0 0.0 0.00 0.97 0.47 88 1015.0
20260904224549 77 0 0.0 0.0 0.00 1.50 0.47 87 1015.0
20260904223046 77 0 0.0 0.0 0.00 1.50 0.47 85 1015.1
20260904221544 78 0 0.0 0.0 0.00 1.50 0.47 83 1014.8
20260904220105 78 0 0.0 0.0 0.00 1.50 0.47 82 1014.8
20260904214551 79 0 0.0 0.0 0.00 1.70 0.47 83 1014.9
20260904213052 79 0 0.0 0.0 0.00 1.70 0.47 83 1014.9
20260904211549 79 0 0.0 0.0 0.00 1.70 0.47 82 1014.8
20260904210050 79 0 0.0 2.0 0.00 1.70 0.47 78 1014.9
20260904204545 79 0 0.0 0.0 0.00 1.70 0.47 84 1015.0
20260904203052 79 0 0.0 1.0 0.00 1.70 0.47 82 1015.6
20260904201603 78 0 0.0 0.0 0.00 1.70 0.47 85 1015.6
20260904200051 78 0 0.0 0.0 0.00 1.70 0.47 86 1015.2
20260904194543 78 0 0.0 2.0 0.00 1.70 0.47 84 1015.4
20260904193050 79 0 0.0 2.0 0.00 1.70 0.47 86 1016.2
20260904191550 79 231 0.0 1.0 0.00 1.70 0.47 85 1016.7
20260904190046 79 124 0.0 3.0 0.00 1.70 0.47 85 1016.6
20260904184553 79 239 0.0 1.0 0.00 1.70 0.47 86 1016.6
20260904183058 79 0 0.0 3.0 0.00 1.70 0.47 87 1016.7
20260904181548 78 0 0.0 2.0 0.00 1.70 0.47 91 1016.6
20260904174550 75 0 0.0 0.0 0.00 1.70 0.47 93 1016.6
20260904173108 75 0 0.0 2.0 0.00 1.70 0.47 93 1016.7
20260904171552 74 0 0.0 0.0 0.00 1.70 0.47 93 1017.2
20260904170051 74 0 0.0 1.0 0.00 1.70 0.47 93 1017.4
20260904164549 73 0 0.0 1.0 0.00 1.70 0.47 93 1017.4
20260904163047 73 0 0.0 0.0 0.07 1.70 0.47 93 1017.6
20260904161543 73 0 0.0 0.0 0.07 1.70 0.47 93 1017.7
20260904160051 73 0 0.0 1.0 0.07 1.70 0.47 93 1018.2
20260904154549 73 0 0.0 1.0 0.07 1.70 0.47 93 1018.5
20260904153055 74 0 0.0 1.0 0.00 1.63 0.40 92 1018.0
20260904151546 73 0 0.0 0.0 0.00 1.63 0.40 93 1017.7
20260904150054 72 0 0.0 1.0 0.00 1.63 0.40 93 1017.7
20260904144552 71 0 0.0 1.0 0.00 1.67 0.40 93 1017.6
20260904143046 71 0 0.0 0.0 0.00 1.67 0.40 93 1017.5
20260904141542 71 0 0.0 0.0 0.00 1.67 0.40 93 1017.3
20260904140050 70 0 0.0 0.0 0.00 1.67 0.40 94 1017.2
20260904134549 69 0 0.0 1.0 0.00 2.13 0.40 93 1017.4
20260904133044 69 0 0.0 0.0 0.00 2.13 0.40 94 1017.3
20260904131552 69 0 0.0 0.0 0.00 2.13 0.40 94 1017.4
20260904130049 68 0 0.0 0.0 0.00 2.13 0.40 94 1017.6
20260904124559 68 0 0.0 0.0 0.00 2.14 0.40 94 1017.8
20260904123053 67 0 0.0 0.0 0.00 2.14 0.40 94 1017.8
20260904121548 66 0 0.0 0.0 0.00 2.14 0.40 94 1017.8
20260904120048 66 0 0.0 0.0 0.00 2.14 0.40 93 1017.8
20260904114552 65 0 0.0 0.0 0.00 2.25 0.40 93 1017.6
20260904113053 65 0 0.0 0.0 0.00 2.25 0.40 93 1017.5
20260904111549 65 0 0.0 0.0 0.00 2.25 0.40 93 1017.1
20260904110046 65 0 0.0 0.0 0.00 2.25 0.40 93 1017.2
20260904104543 65 0 0.0 0.0 0.00 2.25 0.40 93 1017.2
20260904103045 65 0 0.0 0.0 0.00 2.25 0.40 93 1017.3
20260904101556 65 0 0.0 0.0 0.00 2.25 0.40 93 1017.0
20260904100046 66 0 0.0 0.0 0.00 2.25 0.40 93 1016.5
20260904094552 66 0 0.0 0.0 0.00 2.25 0.40 93 1016.4
20260904093053 66 0 0.0 0.0 0.00 2.25 0.40 93 1016.7
20260904091549 66 0 0.0 0.0 0.00 2.25 0.40 93 1017.0
20260904090046 66 0 0.0 0.0 0.00 2.25 0.40 93 1016.7
20260904084542 66 0 0.0 0.0 0.00 2.25 0.40 93 1016.9
20260904083055 66 0 0.0 0.0 0.00 2.25 0.40 93 1016.6
20260904081607 66 0 0.0 0.0 0.00 2.25 0.40 93 1016.4
20260904080048 66 0 0.0 0.0 0.00 2.25 0.40 93 1016.5
20260904074603 67 0 0.0 0.0 0.00 2.25 0.40 93 1016.5
20260904073102 67 0 0.0 0.0 0.00 2.25 0.40 93 1016.6
20260904071550 67 0 0.0 0.0 0.00 2.25 0.40 93 1016.8
20260904070101 67 0 0.0 2.0 0.00 2.25 0.40 93 1016.8
20260904064544 67 0 0.0 1.0 0.01 2.25 0.40 93 1016.5
20260904063055 67 0 0.0 0.0 0.17 2.25 0.40 93 1016.7
20260904061556 67 0 0.0 0.0 0.40 2.25 0.40 93 1016.9
20260904060045 68 0 0.0 0.0 0.40 2.25 0.40 93 1017.0
20260904054544 68 0 0.0 1.0 0.39 2.24 0.39 93 1017.4
20260904053051 68 0 0.0 6.0 0.20 2.05 0.20 93 1018.0
20260904051551 67 0 0.0 0.0 0.00 1.85 0.00 93 1016.6
20260904050052 68 0 0.0 1.0 0.00 1.85 0.00 93 1016.0
20260904044549 68 0 0.0 2.0 0.00 1.85 0.00 93 1016.3
20260904043057 68 0 0.0 0.0 0.00 1.85 0.00 93 1016.6
20260904041544 68 0 0.0 2.0 0.00 1.85 0.00 93 1016.4
20260904040051 68 0 0.0 2.0 0.00 1.85 0.00 93 1016.5
20260904034553 68 0 0.0 1.0 0.00 1.85 1.85 93 1016.7
20260904033047 68 0 0.0 1.0 0.00 1.85 1.85 93 1016.8
20260904031545 68 0 0.0 2.0 0.00 1.85 1.85 93 1016.8
20260904030044 68 266 0.0 1.0 0.00 1.85 1.85 93 1016.6
20260904024553 68 150 0.0 2.0 0.00 1.86 1.85 93 1017.1
20260904023050 68 148 0.0 1.0 0.00 1.86 1.85 93 1017.2
20260904021552 68 0 0.0 0.0 0.00 1.86 1.85 93 1017.2
20260904020049 68 0 0.0 0.0 0.01 1.86 1.85 93 1017.4
20260904014623 68 0 0.0 0.0 0.03 2.43 1.85 93 1017.2
20260904013057 69 0 0.0 0.0 0.10 2.43 1.85 93 1017.4
20260904011550 69 257 0.0 1.0 0.42 2.43 1.85 93 1017.5
20260904010049 69 261 0.0 1.0 0.42 2.42 1.84 93 1017.3